Flag for Syria Weather past 2 weeks in Damascus, Syria

Now
81 °F

Sunny.


Feels Like: 79 °F
Forecast: 52 / 99 °F
Wind: 5 mph from South

Location: Damascus Int. Airport

Current Time: Aug 21, 2014 at 10:20:51 AM

Latest Report: Aug 21, 2014 at 10:00 AM


Visibility: 10 mi

Pressure: 30.01 "Hg

Humidity: 28%

Dew point: 45 °F

Location of DamascusLocation

Historic Weather in Damascus — Graph

°F

Damascus temperature yesterday

Maximum temperature yesterday: 97 °F (at 2:00 PM)
Minimum temperature yesterday: 66 °F (at 6:00 AM)
Average temperature yesterday: 81 °F

Past Weeks' High & Low Weather Summary

 TemperatureHumidityPressure
High106 °F (Aug 14, 5:00 PM)100% (Aug 19, 7:00 PM)30.01 "Hg (Aug 19, 7:00 PM)
Low36 °F (Aug 19, 7:00 PM)11% (Aug 12, 3:00 PM)29.65 "Hg (Aug 18, 5:00 PM)
Average82 °F47%29.82 "Hg
* Reported Aug 6 9:00 AM — Aug 21 9:00 AM, Damascus, Weather by CustomWeather, © 2014

Note: Actual official high and low records may vary slightly from our data, if they occured in-between our weather recording intervals... More about our weather records

Advertising

Damascus weather history for previous 24 hours

 ConditionsComfort  
Time TempWeatherWind HumidityBarometerVisibility
9:00 AM
Aug 21
70 °FSunny.7 mph60%30.01 "Hg10 mi
8:00 AM70 °FSunny.7 mph60%30.01 "Hg10 mi
7:00 AM63 °FSunny.No wind73%29.98 "Hg10 mi
6:00 AM63 °FClear.5 mph77%29.95 "Hg10 mi
5:00 AM63 °FClear.7 mph73%29.95 "Hg10 mi
4:00 AM68 °FClear.7 mph78%29.95 "Hg10 mi
3:00 AM72 °FClear.12 mph69%29.95 "Hg10 mi
2:00 AM72 °FClear.7 mph65%29.98 "Hg10 mi
1:00 AM73 °FClear.9 mph61%29.98 "Hg10 mi
12:00 AM75 °FClear.9 mph61%29.98 "Hg10 mi
11:00 PM
Aug 20
79 °FClear.12 mph54%29.98 "Hg10 mi
10:00 PM81 °FClear.12 mph51%29.98 "Hg10 mi
9:00 PM82 °FClear.9 mph45%29.98 "Hg10 mi
8:00 PM86 °FSunny.9 mph38%29.95 "Hg10 mi
7:00 PM90 °FSunny.14 mph33%29.95 "Hg10 mi
6:00 PM93 °FSunny.18 mph28%29.95 "Hg10 mi
5:00 PM95 °FSunny.14 mph25%29.95 "Hg10 mi
3:00 PM97 °FSunny.23 mph22%29.95 "Hg10 mi
2:00 PM97 °FSunny.18 mph22%29.95 "Hg10 mi
1:00 PM93 °FSunny.18 mph28%29.98 "Hg10 mi
12:00 PM90 °FSunny.14 mph29%29.98 "Hg10 mi
11:00 AM88 °FSunny.12 mph38%30.01 "Hg10 mi
10:00 AM82 °FSunny.12 mph45%30.01 "Hg10 mi
Weather by CustomWeather, © 2014

See weather overviewHow to use our weather pages